CW9931 Weather Reports


time (UTC)temp
C
wind
direction
speed
KPH
gust
KPH
rain 1hr
cm
rain 24hr
cm
rain mn
cm
humidity
%
barometer
mb
20260905224603 31 335 8.0 32.2 0.00 0.18 0.18 74 1007.6
20260905224103 31 16 11.3 19.3 0.00 0.18 0.18 74 1007.5
20260905223604 31 18 6.4 24.1 0.00 0.18 0.18 73 1007.5
20260905222603 32 27 9.7 19.3 0.00 0.18 0.18 73 1007.4
20260905222104 32 354 1.6 27.4 0.00 0.18 0.18 73 1007.4
20260905221603 32 351 0.0 0.0 0.00 0.18 0.18 72 1007.4
20260905221104 32 1 0.0 0.0 0.00 0.18 0.18 71 1007.4
20260905220604 32 18 0.0 0.0 0.00 0.18 0.18 70 1007.3
20260905220104 32 34 0.0 0.0 0.00 0.18 0.18 69 1007.2
20260905215604 32 24 0.0 0.0 0.00 0.18 0.18 68 1007.2
20260905215103 32 145 0.0 0.0 0.00 0.18 0.18 68 1007.2
20260905214604 32 26 0.0 0.0 0.00 0.18 0.18 70 1007.2
20260905213603 32 21 0.0 0.0 0.00 0.18 0.18 70 1007.1
20260905213104 32 349 0.0 0.0 0.00 0.18 0.18 70 1007.1
20260905212603 32 42 0.0 0.0 0.00 0.18 0.18 70 1007.1
20260905211603 32 65 0.0 0.0 0.00 0.18 0.18 69 1007.2
20260905211103 33 355 0.0 0.0 0.00 0.18 0.18 69 1007.2
20260905210604 33 21 0.0 0.0 0.00 0.18 0.18 68 1007.1
20260905210103 33 40 0.0 0.0 0.00 0.18 0.18 68 1007.2
20260905205603 33 61 0.0 0.0 0.00 0.18 0.18 68 1007.3
20260905205103 33 37 0.0 0.0 0.00 0.18 0.18 69 1007.3
20260905204603 33 19 0.0 0.0 0.00 0.18 0.18 69 1007.4
20260905204104 33 3 0.0 0.0 0.00 0.18 0.18 68 1007.4
20260905203603 33 25 0.0 0.0 0.00 0.18 0.18 68 1007.3
20260905203103 33 3 0.0 0.0 0.00 0.18 0.18 68 1007.3
20260905202604 33 59 0.0 0.0 0.00 0.18 0.18 68 1007.4
20260905202103 33 11 0.0 0.0 0.00 0.18 0.18 67 1007.4
20260905201604 33 346 0.0 0.0 0.00 0.18 0.18 65 1007.4
20260905201103 33 293 0.0 0.0 0.00 0.18 0.18 65 1007.4
20260905200603 33 23 0.0 0.0 0.00 0.18 0.18 65 1007.4
20260905200104 33 2 0.0 0.0 0.00 0.18 0.18 65 1007.5
20260905194603 34 351 0.0 0.0 0.00 0.18 0.18 64 1007.4
20260905194104 34 310 0.0 0.0 0.00 0.18 0.18 63 1007.6
20260905193604 34 92 0.0 0.0 0.00 0.18 0.18 66 1007.5
20260905193103 33 308 0.0 0.0 0.00 0.18 0.18 67 1007.7
20260905192604 33 40 0.0 0.0 0.00 0.18 0.18 67 1007.8
20260905192103 33 3 0.0 0.0 0.00 0.18 0.18 65 1007.8
20260905191604 33 26 0.0 0.0 0.00 0.18 0.18 67 1007.8
20260905191103 33 296 0.0 0.0 0.00 0.18 0.18 65 1007.9
20260905185603 33 328 0.0 0.0 0.00 0.18 0.18 70 1008.0
20260905185104 33 113 0.0 0.0 0.00 0.18 0.18 69 1008.0
20260905184603 33 309 0.0 0.0 0.00 0.18 0.18 68 1008.1
20260905184104 33 14 0.0 0.0 0.00 0.18 0.18 70 1008.3
20260905183604 33 260 0.0 0.0 0.00 0.18 0.18 70 1008.4
20260905183103 32 330 0.0 0.0 0.00 0.18 0.18 72 1008.4
20260905182603 32 42 0.0 0.0 0.00 0.18 0.18 71 1008.3
20260905182103 33 34 0.0 0.0 0.00 0.18 0.18 69 1008.3
20260905181604 33 41 0.0 0.0 0.00 0.18 0.18 65 1008.4
20260905181103 34 22 0.0 0.0 0.00 0.18 0.18 61 1008.4
20260905180603 35 59 0.0 0.0 0.00 0.18 0.18 63 1008.4
20260905180103 35 23 0.0 0.0 0.00 0.18 0.18 63 1008.3
20260905175603 35 292 0.0 0.0 0.00 0.18 0.18 64 1008.3
20260905175103 35 186 0.0 0.0 0.00 0.18 0.18 63 1008.3
20260905174103 35 157 0.0 0.0 0.00 0.18 0.18 68 1008.4
20260905173603 34 231 0.0 0.0 0.00 0.18 0.18 68 1008.4
20260905173103 34 232 0.0 0.0 0.00 0.18 0.18 68 1008.7
20260905172604 33 99 0.0 0.0 0.00 0.18 0.18 68 1008.8
20260905172104 33 77 0.0 0.0 0.00 0.18 0.18 70 1008.8
20260905170104 33 46 0.0 0.0 0.00 0.18 0.18 73 1008.9
20260905165104 33 173 0.0 0.0 0.00 0.18 0.18 72 1008.9
20260905164604 33 183 0.0 0.0 0.00 0.18 0.18 72 1009.0
20260905164103 33 208 0.0 0.0 0.00 0.18 0.18 72 1009.1
20260905161603 32 138 0.0 0.0 0.00 0.18 0.18 77 1009.0
20260905155604 31 138 0.0 0.0 0.00 0.18 0.18 80 1009.3
20260905155103 31 109 0.0 0.0 0.10 0.18 0.18 81 1009.4
20260905154604 31 113 0.0 0.0 0.18 0.18 0.18 82 1009.4
20260905154104 31 153 0.0 0.0 0.18 0.18 0.18 82 1009.3
20260905153104 30 120 0.0 0.0 0.18 0.18 0.18 87 1009.1
20260905152604 30 127 0.0 0.0 0.18 0.18 0.18 88 1009.0
20260905151104 29 111 0.0 0.0 0.18 0.18 0.18 87 1009.0
20260905150603 29 110 0.0 0.0 0.18 0.18 0.18 85 1009.0
20260905145604 30 95 0.0 0.0 0.18 0.18 0.18 81 1009.0
20260905144603 30 294 0.0 0.0 0.00 0.00 0.00 79 1009.0
20260905144103 30 294 0.0 0.0 0.00 0.00 0.00 78 1009.1
20260905143603 30 295 0.0 0.0 0.00 0.00 0.00 79 1009.1
20260905142604 30 322 0.0 0.0 0.00 0.00 0.00 79 1009.0
20260905142104 30 322 0.0 0.0 0.00 0.00 0.00 79 1009.0
20260905141603 30 31 0.0 0.0 0.00 0.00 0.00 78 1009.0
20260905141104 29 354 0.0 0.0 0.00 0.00 0.00 81 1009.0
20260905140604 29 31 0.0 0.0 0.00 0.00 0.00 84 1009.0
20260905140103 28 22 0.0 0.0 0.00 0.00 0.00 85 1008.9
20260905135603 28 27 0.0 0.0 0.00 0.00 0.00 85 1008.7
20260905135104 27 39 0.0 0.0 0.00 0.00 0.00 86 1008.8
20260905134603 27 9 0.0 0.0 0.00 0.00 0.00 87 1008.7
20260905134103 27 28 0.0 0.0 0.00 0.00 0.00 89 1008.7
20260905133103 27 41 0.0 0.0 0.00 0.00 0.00 90 1008.6
20260905132604 26 41 0.0 0.0 0.00 0.00 0.00 91 1008.7
20260905132103 26 46 0.0 0.0 0.00 0.00 0.00 91 1008.8
20260905131104 26 34 0.0 0.0 0.00 0.00 0.00 92 1008.9
20260905130603 26 34 0.0 0.0 0.00 0.00 0.00 93 1009.0
20260905130104 26 34 0.0 0.0 0.00 0.00 0.00 93 1008.9
20260905125603 25 30 0.0 0.0 0.00 0.00 0.00 94 1008.9
20260905125104 25 30 0.0 0.0 0.00 0.00 0.00 95 1008.8
20260905124603 25 30 0.0 0.0 0.00 0.00 0.00 95 1008.8
20260905124103 25 30 0.0 0.0 0.00 0.00 0.00 95 1008.9
20260905123103 25 30 0.0 0.0 0.00 0.00 0.00 96 1008.8
20260905122603 25 30 0.0 0.0 0.00 0.00 0.00 96 1008.8
20260905121103 24 30 0.0 0.0 0.00 0.00 0.00 96 1008.8
20260905120604 24 30 0.0 0.0 0.00 0.00 0.00 96 1008.8
20260905115603 23 30 0.0 0.0 0.00 0.00 0.00 95 1008.7
20260905115104 23 30 0.0 0.0 0.00 0.00 0.00 95 1008.7
20260905114603 23 30 0.0 0.0 0.00 0.00 0.00 95 1008.7
20260905114103 23 30 0.0 0.0 0.00 0.00 0.00 95 1008.6
20260905113603 23 30 0.0 0.0 0.00 0.00 0.00 95 1008.6
20260905113103 23 30 0.0 0.0 0.00 0.00 0.00 95 1008.6
20260905112104 23 30 0.0 0.0 0.00 0.00 0.00 95 1008.6
20260905111603 23 30 0.0 0.0 0.00 0.00 0.00 95 1008.6
20260905111103 23 30 0.0 0.0 0.00 0.00 0.00 95 1008.6
20260905110603 23 30 0.0 0.0 0.00 0.00 0.00 95 1008.6
20260905110104 24 30 0.0 0.0 0.00 0.00 0.00 95 1008.5
20260905105604 24 30 0.0 0.0 0.00 0.00 0.00 95 1008.4
20260905104603 24 30 0.0 0.0 0.00 0.00 0.00 95 1008.4
20260905103604 24 30 0.0 0.0 0.00 0.00 0.00 94 1008.5
20260905103103 24 30 0.0 0.0 0.00 0.00 0.00 94 1008.5
20260905102603 24 30 0.0 0.0 0.00 0.00 0.00 94 1008.5
20260905102103 24 30 0.0 0.0 0.00 0.00 0.00 94 1008.5
20260905101603 24 30 0.0 0.0 0.00 0.00 0.00 95 1008.5
20260905101103 24 30 0.0 0.0 0.00 0.00 0.00 95 1008.6
20260905100603 24 30 0.0 0.0 0.00 0.00 0.00 95 1008.5
20260905100104 24 30 0.0 0.0 0.00 0.00 0.00 95 1008.5
20260905095603 24 30 0.0 0.0 0.00 0.00 0.00 95 1008.5
20260905094604 24 30 0.0 0.0 0.00 0.00 0.00 95 1008.5
20260905094103 24 30 0.0 0.0 0.00 0.00 0.00 95 1008.5
20260905093603 24 30 0.0 0.0 0.00 0.00 0.00 95 1008.5
20260905092603 24 30 0.0 0.0 0.00 0.00 0.00 95 1008.5
20260905092103 24 30 0.0 0.0 0.00 0.00 0.00 95 1008.5
20260905091603 24 30 0.0 0.0 0.00 0.00 0.00 95 1008.5
20260905091104 24 30 0.0 0.0 0.00 0.00 0.00 95 1008.5
20260905090603 24 30 0.0 0.0 0.00 0.00 0.00 95 1008.4
20260905090104 24 30 0.0 0.0 0.00 0.00 0.00 95 1008.4
20260905085603 24 30 0.0 0.0 0.00 0.00 0.00 94 1008.4
20260905085103 24 30 0.0 0.0 0.00 0.00 0.00 94 1008.3
20260905084103 24 30 0.0 0.0 0.00 0.00 0.00 95 1008.2
20260905083604 24 30 0.0 0.0 0.00 0.00 0.00 95 1008.1
20260905083104 24 30 0.0 0.0 0.00 0.00 0.00 95 1008.0
20260905082604 24 30 0.0 0.0 0.00 0.00 0.00 95 1008.0
20260905082103 24 30 0.0 0.0 0.00 0.00 0.00 95 1008.0
20260905081604 24 30 0.0 0.0 0.00 0.00 0.00 95 1008.0
20260905081104 24 30 0.0 0.0 0.00 0.00 0.00 95 1008.1
20260905080104 24 30 0.0 0.0 0.00 0.00 0.00 95 1008.0
20260905075604 24 30 0.0 0.0 0.00 0.00 0.00 94 1008.0
20260905075103 24 30 0.0 0.0 0.00 0.00 0.00 94 1007.9
20260905074104 24 30 0.0 0.0 0.00 0.00 0.00 94 1007.9
20260905073604 24 30 0.0 0.0 0.00 0.00 0.00 95 1007.9
20260905073103 24 30 0.0 0.0 0.00 0.00 0.00 94 1008.0
20260905072604 24 30 0.0 0.0 0.00 0.00 0.00 94 1008.0
20260905072104 24 30 0.0 0.0 0.00 0.00 0.00 94 1007.9
20260905071103 24 30 0.0 0.0 0.00 0.00 0.00 94 1008.0
20260905070604 24 30 0.0 0.0 0.00 0.00 0.00 94 1008.1
20260905065104 24 30 0.0 0.0 0.00 0.00 0.00 94 1008.2
20260905064603 24 30 0.0 0.0 0.00 0.00 0.00 94 1008.2
20260905064104 24 30 0.0 0.0 0.00 0.00 0.00 94 1008.3
20260905063604 24 30 0.0 0.0 0.00 0.00 0.00 94 1008.4
20260905063103 24 30 0.0 0.0 0.00 0.00 0.00 93 1008.4
20260905062604 24 30 0.0 0.0 0.00 0.00 0.00 93 1008.4
20260905062104 25 30 0.0 0.0 0.00 0.00 0.00 93 1008.5
20260905061603 25 30 0.0 0.0 0.00 0.00 0.00 93 1008.6
20260905061103 25 30 0.0 0.0 0.00 0.00 0.00 93 1008.6
20260905060604 25 30 0.0 0.0 0.00 0.00 0.00 93 1008.6
20260905060103 25 30 0.0 0.0 0.00 0.00 0.00 93 1008.6
20260905055603 25 30 0.0 0.0 0.00 0.00 0.00 93 1008.6
20260905055103 25 30 0.0 0.0 0.00 0.00 0.00 93 1008.6
20260905054604 25 30 0.0 0.0 0.00 0.00 0.00 92 1008.7
20260905054103 25 30 0.0 0.0 0.00 0.00 0.00 92 1008.7
20260905053603 25 30 0.0 0.0 0.00 0.00 0.00 92 1008.7
20260905052603 25 30 0.0 0.0 0.00 0.00 0.00 92 1008.8
20260905052103 25 30 0.0 0.0 0.00 0.00 0.00 92 1008.7
20260905051604 25 30 0.0 0.0 0.00 0.00 0.00 91 1008.7
20260905051104 25 30 0.0 0.0 0.00 0.00 0.00 91 1008.6
20260905050603 25 30 0.0 0.0 0.00 0.00 0.00 91 1008.5
20260905045604 25 30 0.0 0.0 0.00 0.00 0.00 91 1008.6
20260905043603 25 30 0.0 0.0 0.00 0.00 0.00 91 1008.8
20260905043103 25 30 0.0 0.0 0.00 0.00 0.00 91 1008.9
20260905042604 25 30 0.0 0.0 0.00 0.00 0.00 91 1008.8
20260905042103 26 30 0.0 0.0 0.00 0.00 0.00 91 1008.9
20260905041603 26 30 0.0 0.0 0.00 0.00 0.00 91 1008.9
20260905040604 26 30 0.0 0.0 0.00 0.00 0.00 91 1008.9
20260905040103 26 30 0.0 0.0 0.00 0.00 0.00 91 1008.9
20260905035603 26 30 0.0 0.0 0.00 0.00 0.00 90 1008.9
20260905034603 26 30 0.0 0.0 0.00 0.00 0.00 90 1008.9
20260905033603 26 28 0.0 0.0 0.00 0.00 0.00 90 1009.0
20260905033104 26 28 0.0 0.0 0.00 0.00 0.00 90 1009.1
20260905032603 26 28 0.0 0.0 0.00 0.00 0.00 90 1009.1
20260905032103 26 28 0.0 0.0 0.00 0.00 0.00 90 1009.1
20260905031603 26 28 0.0 0.0 0.00 0.00 0.00 90 1009.1
20260905031104 26 28 0.0 0.0 0.00 0.00 0.00 89 1009.1
20260905030603 26 28 0.0 0.0 0.00 0.00 0.00 89 1009.1
20260905025604 26 28 0.0 0.0 0.00 0.00 0.00 89 1009.1
20260905025104 26 28 0.0 0.0 0.00 0.00 0.00 89 1009.0
20260905024603 26 28 0.0 0.0 0.00 0.00 0.00 89 1009.0
20260905024103 26 118 0.0 0.0 0.00 0.00 0.00 90 1008.9
20260905023604 26 118 0.0 0.0 0.00 0.00 0.00 89 1008.9
20260905023103 26 118 0.0 0.0 0.00 0.00 0.00 89 1008.9
20260905022604 27 118 0.0 0.0 0.00 0.00 0.00 89 1008.9
20260905021603 27 118 0.0 0.0 0.00 0.00 0.00 89 1008.8
20260905021103 27 118 0.0 0.0 0.00 0.00 0.00 89 1008.7
20260905020604 27 118 0.0 0.0 0.00 0.00 0.00 88 1008.7
20260905020103 27 118 0.0 0.0 0.00 0.00 0.00 88 1008.7
20260905015604 27 118 0.0 0.0 0.00 0.00 0.00 87 1008.6
20260905015103 27 118 0.0 0.0 0.00 0.00 0.00 88 1008.6
20260905014604 27 118 0.0 0.0 0.00 0.00 0.00 87 1008.6
20260905014103 27 118 0.0 0.0 0.00 0.00 0.00 87 1008.5
20260905013603 27 118 0.0 0.0 0.00 0.00 0.00 87 1008.5
20260905013104 27 118 0.0 0.0 0.00 0.00 0.00 87 1008.5
20260905012603 27 118 0.0 0.0 0.00 0.00 0.00 87 1008.5
20260905012103 27 118 0.0 0.0 0.00 0.00 0.00 86 1008.5
20260905011603 27 118 0.0 0.0 0.00 0.00 0.00 86 1008.5
20260905010103 28 118 0.0 0.0 0.00 0.00 0.00 85 1008.5
20260905005604 28 118 0.0 0.0 0.00 0.00 0.00 85 1008.4
20260905005103 28 118 0.0 0.0 0.00 0.00 0.00 85 1008.3
20260905004603 28 118 0.0 0.0 0.00 0.00 0.00 85 1008.2
20260905004104 28 118 0.0 0.0 0.00 0.00 0.00 84 1008.2
20260905003603 28 118 0.0 0.0 0.00 0.00 0.00 83 1008.2
20260905002103 29 118 0.0 0.0 0.00 0.00 0.00 81 1008.2
20260905001604 30 118 0.0 0.0 0.00 0.00 0.00 80 1008.2
20260905001103 30 118 0.0 0.0 0.00 0.00 0.00 78 1008.3
20260905000604 30 118 0.0 0.0 0.00 0.00 0.00 78 1008.2
20260905000103 30 118 0.0 0.0 0.00 0.00 0.00 77 1008.1
20260904235604 30 118 0.0 0.0 0.00 0.00 0.00 77 1008.1
20260904234603 31 118 0.0 0.0 0.00 0.00 0.00 76 1008.1
20260904234104 31 118 0.0 0.0 0.00 0.00 0.00 74 1008.1
20260904233603 31 118 0.0 0.0 0.00 0.00 0.00 73 1008.1
20260904233104 31 118 0.0 0.0 0.00 0.00 0.00 73 1008.1
20260904231603 32 118 0.0 0.0 0.00 0.00 0.00 71 1008.1
20260904231104 32 118 0.0 0.0 0.00 0.00 0.00 70 1008.1
20260904230603 32 118 0.0 0.0 0.00 0.00 0.00 69 1008.0
20260904230104 32 118 0.0 0.0 0.00 0.00 0.00 69 1008.0
20260904225604 32 118 0.0 0.0 0.00 0.00 0.00 68 1008.0
20260904225103 32 118 0.0 0.0 0.00 0.00 0.00 67 1008.0